Regional Weather Roundup
Issued by NWS Green Bay, WI

Home | Current Version | Previous Version | Graphics & Text | Print | Product List | Glossary Off
Versions: 1 2 3 4 5 6 7 8 9 10 11 12 13 14 15 16 17 18 19 20 21 22 23 24 25 26 27 28 29 30 31 32 33 34 35 36 37 38 39 40 41 42 43 44 45 46 47 48 49 50

000
ASUS43 KGRB 301059
RWRGRB

NORTH-CENTRAL AND NORTHEAST WISCONSIN REGIONAL WEATHER ROUNDUP
NATIONAL WEATHER SERVICE GREEN BAY WI
600 AM CDT THU OCT 30 2014

WIZ005-009-010>012-018-019-301200-
NORTH CENTRAL WISCONSIN

CITY           SKY/WX    TMP DP  RH WIND       PRES   REMARKS
IRONWOOD       CLOUDY    37  34  87 W7        30.01F
MANITOWISH WTR NOT AVBL
ARBOR VITAE    NOT AVBL
EAGLE RIVER    NOT AVBL
LAND O LAKES   NOT AVBL
RHINELANDER    CLOUDY    36  31  82 CALM      30.04F
PHILLIPS       NOT AVBL
ANTIGO         NOT AVBL
TOMAHAWK       NOT AVBL
MERRILL        NOT AVBL
$$

WIZ013-073-301200-
NORTHEAST WISCONSIN

CITY           SKY/WX    TMP DP  RH WIND       PRES   REMARKS
IRON MOUNTAIN  CLOUDY    39  33  79 CALM      30.03F
MARINETTE      CLOUDY    39  34  81 CALM      30.06S
$$

WIZ017-030-035>037-045-301200-
CENTRAL WISCONSIN

CITY           SKY/WX    TMP DP  RH WIND       PRES   REMARKS
MEDFORD        NOT AVBL
WAUSAU         CLOUDY    33  31  92 CALM      30.05F
MOSINEE        MOCLDY    30  30 100 CALM      30.06F
MARSHFIELD     CLOUDY    32  30  92 CALM      30.05F
WISC RAPIDS    CLOUDY    33  32  96 CALM      30.09R
STEVENS POINT  NOT AVBL
WAUPACA        NOT AVBL
SHAWANO        NOT AVBL
CLINTONVILLE   NOT AVBL
$$

WIZ038-039-048-051-301200-
FOX VALLEY

CITY           SKY/WX    TMP DP  RH WIND       PRES   REMARKS
NWS GREEN BAY  CLOUDY    37  34  89 CALM      30.09R
APPLETON       MOCLDY    36  34  93 SW6       30.08S
OSHKOSH        MOCLDY    36  33  89 CALM      30.09R
FOND DU LAC    MOCLDY    33  30  88 S3        30.10S
$$

WIZ022-050-052-301200-
EAST CENTRAL WISCONSIN

CITY           SKY/WX    TMP DP  RH WIND       PRES   REMARKS
STURGEON BAY   CLOUDY    41  34  75 CALM      30.08S
MANITOWOC      NOT AVBL
SHEBOYGAN      MOCLDY    32  30  92 W3        30.10S
$$

LMZ563-521-522-541>543-301200-
LAKESHORE

STATION/POSITION TIME  TEMP    WIND        PRES    VSBY  WAVE
                       AIR SEA DIR/SP/G                  HT/PER
                 (UTC) (F)     (DEG/KT/KT) (MB)    (MI)  (FT/S)
SHEBOYGAN LKSHOR 1000   38 50  260/  9/ 10 1019.9R
KEWAUNEE LKSHORE 1000   39     280/  3/  4 1017.8R
NORTHPORT PIER   1000   42      CALM  /  2 1018.3S
N MID LAKE BUOY  1000   44 51   CALM  /  2 1018.7S         0
CHAMBERS ISLAND  1000   43     270/  1/  4 1018.6S
MENOMINEE LKSHOR 1000   42     200/  3/  3 1018.8F
$$



USA.gov is the U.S. government's official web portal to all federal, state and local government web resources and services.